Location: Dalton
(34.7700°N, 84.9700°W)
Time: 21:24:09
(UTC-04:00)

Vanguard 1 - Visible Passes

Search period start: 17 July 2018 00:00
Search period end: 27 July 2018 00:00
Orbit: 650 x 3832 km, 34.2° (Epoch: 16 July)

Date Brightness Start Highest point End Pass type
(mag) Time Alt. Az. Time Alt. Az. Time Alt. Az.
17 Jul 11.1 03:09:30 24° E 03:09:30 24° E 03:11:43 10° E visible
17 Jul 10.0 05:22:15 13° W 05:26:36 55° SSW 05:34:11 10° ESE visible
17 Jul 11.7 22:42:21 10° SSW 22:45:07 17° S 22:45:07 17° S visible
18 Jul 10.6 03:29:41 33° E 03:29:41 33° E 03:32:51 10° E visible
18 Jul 10.4 05:42:46 10° W 05:47:35 42° SSW 05:55:04 10° SE visible
18 Jul 11.4 23:02:22 10° SW 23:05:54 22° SSW 23:05:54 22° SSW visible
19 Jul 10.1 03:49:58 43° ESE 03:49:58 43° ESE 03:53:57 10° ESE visible
19 Jul 10.8 06:03:53 10° W 06:08:35 31° SSW 06:15:40 10° SE visible
19 Jul 11.3 23:22:53 10° SW 23:26:37 25° SSW 23:26:37 25° SSW visible
20 Jul 9.8 04:10:21 49° SE 04:10:21 49° SE 04:15:01 10° ESE visible
20 Jul 11.7 21:22:59 10° SSW 21:29:37 20° SSE 21:34:18 10° ESE visible
20 Jul 11.2 23:43:43 10° WSW 23:47:15 27° SW 23:47:15 27° SW visible
21 Jul 9.8 04:30:49 44° S 04:30:49 44° S 04:35:56 10° SE visible
21 Jul 11.3 21:42:48 10° SSW 21:50:45 28° SSE 21:55:00 14° ESE visible
22 Jul 11.4 00:04:44 10° WSW 00:07:47 25° WSW 00:07:47 25° WSW visible
22 Jul 10.2 04:51:22 33° SSW 04:51:22 33° SSW 04:56:36 10° SE visible
22 Jul 10.9 22:03:10 10° SW 22:11:51 37° SSE 22:15:26 20° ESE visible
23 Jul 11.6 00:25:54 10° WSW 00:28:12 21° WSW 00:28:12 21° WSW visible
23 Jul 10.6 05:12:01 24° SSW 05:12:03 24° SSW 05:16:56 10° SSE visible
23 Jul 10.4 22:23:55 10° SW 22:32:53 48° SSE 22:35:45 28° ESE visible
24 Jul 11.9 00:47:07 10° W 00:48:31 16° W 00:48:31 16° W visible
24 Jul 11.1 05:32:43 16° SSW 05:33:01 16° SSW 05:36:41 10° SSE visible
24 Jul 10.1 22:44:57 10° WSW 22:53:54 60° SSE 22:55:59 39° ESE visible
25 Jul 12.2 01:08:20 10° W 01:08:43 12° W 01:08:43 12° W visible
25 Jul 9.9 23:06:10 10° WSW 23:14:53 72° SSE 23:16:07 56° ESE visible
26 Jul 11.2 21:03:05 10° SW 21:14:52 46° SSE 21:21:30 10° E visible
26 Jul 9.7 23:27:31 10° WSW 23:35:52 81° S 23:36:09 78° SE visible
